Regional Weather Roundup
Issued by NWS

Home | Current Version | Previous Version | Text Only | Print | Product List | Glossary Off
Versions: 1 2 3 4 5 6 7 8 9 10 11 12 13 14 15 16 17 18 19 20 21 22 23 24 25 26 27 28 29 30 31 32 33 34 35 36 37 38 39 40 41 42 43 44 45 46 47 48 49 50

000
ASUS43 KTOP 250359
RWRKS

WEATHER ROUNDUP FOR KANSAS
NATIONAL WEATHER SERVICE GOODLAND KS
1100 PM CDT FRI OCT 24 2014

NOTE:  "FAIR" INDICATES FEW OR NO CLOUDS BELOW 12,000 FEET WITH NO
SIGNIFICANT WEATHER AND/OR OBSTRUCTIONS TO VISIBILITY.

KSZ001>006-013>018-027>032-041>047-250500-
NORTHWEST KANSAS

CITY           SKY/WX    TMP DP  RH WIND       PRES   REMARKS
GOODLAND       CLEAR     51  35  54 N5        30.13R HAZE
HAYS           CLEAR     63  48  59 W5        30.03S
HILL CITY      CLEAR     54  45  71 NW3       30.04R
RUSSELL        CLEAR     66  56  70 S12       30.01R
$$

KSZ061>065-074>080-084>089-250500-
SOUTHWEST KANSAS

CITY           SKY/WX    TMP DP  RH WIND       PRES   REMARKS
DODGE CITY     CLEAR     62  53  72 S7        30.08R
ELKHART          N/A     70  37  29 SW9         N/A
GARDEN CITY    CLEAR     62  43  49 SE9       30.08R
GREAT BEND     CLEAR     61  54  77 SW9       30.04S
LIBERAL        CLEAR     59  43  55 SW8       30.11R
$$

KSZ066>073-081>083-090>101-250500-
SOUTHEAST KANSAS

CITY           SKY/WX    TMP DP  RH WIND       PRES   REMARKS
CHANUTE        CLEAR     64  61  90 S8        30.02S
COFFEYVILLE    CLEAR     64  60  87 S5        30.03S
HUTCHINSON     CLEAR     67  60  78 SW8       30.02S
NEWTON         CLEAR     66  57  72 SW7       30.05R
PARSONS        CLEAR     64  61  90 S6        30.04S
WICHITA INTL   CLEAR     63  59  87 SW7       30.02S
WICHITA JABRA  CLEAR     70  61  73 SW10      30.02R
WINFIELD       CLEAR     67  62  84 S6        30.04S
$$

KSZ007>012-019>026-033>040-048>060-102>105-250500-
NORTHEAST KANSAS

CITY           SKY/WX    TMP DP  RH WIND       PRES   REMARKS
CONCORDIA      CLEAR     64  51  62 CALM      30.01R
EMPORIA        CLEAR     62  60  93 S7        30.00R
LAWRENCE       CLEAR     60  59  96 E3        29.99R
MANHATTAN      CLEAR     62  60  93 CALM      30.00R
OLATHE IND     CLEAR     60  58  92 S5        30.01R
OLATHE EXE     CLEAR     63  61  93 S7        30.00R
SALINA         CLEAR     65  60  84 SW7       30.00R
TOPEKA BILLARD CLEAR     61  61 100 CALM      29.99R
TOPEKA FORBES  CLEAR     67  61  81 SW8       29.98R
$$



USA.gov is the U.S. government's official web portal to all federal, state and local government web resources and services.